PEGASUS R/B

Satellite information

Favourite Embed

Satellite Type and Status

ROCKET BODYIN ORBIT

Key statistics

Satellite PEGASUS R/B at a glance.

Uptime

8555

Days in orbit

Revolutions

≈ 15.4

Per day

Orbit

LEO

Low Earth Orbit

Inclination

38.0

Latest

Satellite identification and parameters

Extended collection of information and parameters for PEGASUS R/B.

Object identification

Identified? True

Debris? False

Object name: PEGASUS R/B

International designator: 2002-004B

Object number (NORAD): 27371

Object ID (CCSDS): 27371

Country: UNITED STATES OF AMERICA (US)

Current information (Y/N): Y

RCS size: LARGE

Orbital parameters

Period: 93.59 minutes

Inclination: 38.0185 deg

SMA: 6828.299 km

Apoapsis: 455.595 km

Periapsis: 444.734 km

RAAN: 158.2335 deg

Eccentricy: 0.0007953

Argument of periapsis: 276.7317 deg

Mean anomaly: 83.255 deg

Mean motion: 15.38629066 rev/day

Mean motion (dot): 0.00011152 rev/day2

B* drag term: 0.00028815 1/REarth

Two-line elements (TLE)

Creation date: July 9, 2025, 2:22 a.m.

Reference frame: TEME

Reference center: EARTH

Epoch: July 8, 2025, 3:05 p.m. UTC

TLE line 0: 0 PEGASUS R/B

TLE line 1: 1 27371U 02004B 25189.62878314 .00011152 00000-0 28815-3 0 9997

TLE line 2: 2 27371 38.0185 158.2335 0007953 276.7317 83.2550 15.38629066288312

Live tracking on map

Real-time ground track for satellite PEGASUS R/B.

In-orbit conjunctions

A list of the most updated potential collisions computed for object PEGASUS R/B.

Target Orbit TCA Probability of collision Miss distance Type
H-2A R/B LEO 2025-06-09 20:25:43 0.0001005689 279.0 (m) ROCKET BODY
OBJECT M SSO 2025-02-13 04:10:38 0.001706406 437.0 (m) UNKNOWN

Associated space launch

PEGASUS R/B was lifted into orbit during the mission ‘Pegasus XL | Reuven Ramaty High Energy Solar Spectroscopic Imager (RHESSI)’, on board a Pegasus XL space rocket.

The launch took place on Feb. 5, 2002, 8:58 p.m. from Cape Canaveral.

For more information about the launch, click the button.

Launch to space Pegasus XL | Reuven Ramaty High Energy Solar Spectroscopic Imager (RHESSI)
Pegasus XL | Reuven Ramaty High Energy Solar Spectroscopic Imager (RHESSI)

Agency: N/A

Status: Launch Successful

Launch date: Feb. 5, 2002, 8:58 p.m. UTC

Rocket: Pegasus XL

Launch pad: Cape Canaveral

Location: Air launch to orbit

...

Latest news about this satellite

There are no fresh news available about this satellite. Check back as we update our databases every day.


Newsletter sign-up

Weekly statistics, charts and insights to help you stay on top of the space industry.